NKS1493 KPHL-KRDU

Flight info

Callsign NKS1493
Flight time N/A
Altitude 36000
Route OOD TEBEE HAYDO TRPOD TAQLE3
Aircraft A20N/M-SDE2E3FGHIRWXY/LB1

Departure

Time 2026-05-07 00:03
Airport Philadelphia International Airport (KPHL)

Arrival

Time N/A
Airport Raleigh-Durham International Airport (KRDU)
Time Latitude Longitude Altitude Speed Heading
2026-05-06 23:32 39.87398 -75.24166 25 ft 0 kts 47°
2026-05-06 23:52 39.87391 -75.24176 30 ft 3 kts 53°
2026-05-06 23:52 39.87381 -75.24198 28 ft 3 kts 83°
2026-05-06 23:52 39.87383 -75.24221 28 ft 3 kts 132°
2026-05-06 23:52 39.87396 -75.24233 30 ft 2 kts 172°
2026-05-06 23:53 39.87398 -75.24234 25 ft 1 kts 174°
2026-05-06 23:57 39.87398 -75.24233 25 ft 1 kts 174°
2026-05-06 23:58 39.87381 -75.24231 28 ft 4 kts 174°
2026-05-06 23:58 39.87341 -75.24223 29 ft 7 kts 161°
2026-05-06 23:58 39.87287 -75.24187 22 ft 10 kts 152°
2026-05-06 23:58 39.87216 -75.24139 27 ft 13 kts 153°
2026-05-06 23:59 39.87158 -75.24102 26 ft 14 kts 158°
2026-05-06 23:59 39.87053 -75.24067 27 ft 17 kts 165°
2026-05-06 23:59 39.86937 -75.24027 28 ft 17 kts 161°
2026-05-06 23:59 39.86919 -75.23895 28 ft 12 kts 75°
2026-05-07 00:00 39.86934 -75.23815 27 ft 15 kts 75°
2026-05-07 00:00 39.86963 -75.23673 25 ft 18 kts 75°
2026-05-07 00:00 39.86993 -75.23521 26 ft 10 kts 76°
2026-05-07 00:00 39.86992 -75.23430 28 ft 11 kts 136°
2026-05-07 00:01 39.86918 -75.23406 25 ft 11 kts 192°
2026-05-07 00:01 39.86894 -75.23452 26 ft 0 kts 253°
2026-05-07 00:02 39.86834 -75.23740 27 ft 68 kts 255°
2026-05-07 00:02 39.86665 -75.24593 25 ft 123 kts 255°
2026-05-07 00:02 39.86411 -75.25853 85 ft 161 kts 254°
2026-05-07 00:03 39.86114 -75.27343 474 ft 178 kts 253°
2026-05-07 00:03 39.85657 -75.28831 1593 ft 175 kts 236°
2026-05-07 00:03 39.84828 -75.29976 2791 ft 178 kts 220°
2026-05-07 00:03 39.83784 -75.30903 3802 ft 188 kts 217°
2026-05-07 00:04 39.82618 -75.31800 4805 ft 203 kts 209°
2026-05-07 00:04 39.81153 -75.32242 5634 ft 230 kts 193°
2026-05-07 00:04 39.79473 -75.32392 6422 ft 254 kts 189°
2026-05-07 00:04 39.77645 -75.32478 7229 ft 269 kts 189°
2026-05-07 00:05 39.75768 -75.32578 8345 ft 271 kts 189°
2026-05-07 00:05 39.73871 -75.32715 9462 ft 274 kts 191°
2026-05-07 00:05 39.71961 -75.32884 10458 ft 280 kts 191°
2026-05-07 00:05 39.69944 -75.33090 10979 ft 303 kts 192°
2026-05-07 00:06 39.67757 -75.33323 11457 ft 325 kts 191°
2026-05-07 00:06 39.65474 -75.33556 12342 ft 332 kts 191°
2026-05-07 00:06 39.63154 -75.33783 13365 ft 337 kts 191°
2026-05-07 00:06 39.60801 -75.34015 14276 ft 342 kts 192°
2026-05-07 00:07 39.58404 -75.34254 15137 ft 349 kts 192°
2026-05-07 00:07 39.55959 -75.34501 15997 ft 355 kts 192°
2026-05-07 00:07 39.53471 -75.34752 16857 ft 362 kts 192°
2026-05-07 00:07 39.53278 -75.34771 16919 ft 362 kts 192°
2026-05-07 00:08 39.51890 -75.34911 17386 ft 366 kts 192°
2026-05-07 00:08 39.49324 -75.35170 18230 ft 372 kts 193°
2026-05-07 00:08 39.47071 -75.35396 18888 ft 376 kts 193°
2026-05-07 00:09 39.44445 -75.35656 19706 ft 379 kts 194°
2026-05-07 00:09 39.41800 -75.35918 20478 ft 383 kts 194°
2026-05-07 00:09 39.39936 -75.36103 21023 ft 386 kts 195°
2026-05-07 00:09 39.39716 -75.36125 21077 ft 386 kts 195°
2026-05-07 00:10 39.37021 -75.36393 21815 ft 390 kts 195°
2026-05-07 00:10 39.34299 -75.36666 22536 ft 394 kts 195°
2026-05-07 00:10 39.31554 -75.36941 23224 ft 398 kts 196°
2026-05-07 00:10 39.28777 -75.37218 23837 ft 402 kts 196°
2026-05-07 00:11 39.27874 -75.37309 24025 ft 402 kts 196°
2026-05-07 00:11 39.20475 -75.38064 25445 ft 408 kts 198°
2026-05-07 00:11 39.17661 -75.38550 25738 ft 413 kts 200°
2026-05-07 00:12 39.14739 -75.39087 25842 ft 425 kts 199°
2026-05-07 00:12 39.11802 -75.39627 25850 ft 439 kts 199°
2026-05-07 00:12 39.08733 -75.40184 25849 ft 452 kts 199°
2026-05-07 00:12 39.05577 -75.40750 25852 ft 464 kts 198°
2026-05-07 00:13 39.02348 -75.41324 25851 ft 474 kts 198°
2026-05-07 00:13 38.99059 -75.41905 25853 ft 480 kts 198°
2026-05-07 00:13 38.95729 -75.42492 25855 ft 485 kts 198°
2026-05-07 00:13 38.92378 -75.43082 25857 ft 488 kts 197°
2026-05-07 00:14 38.89008 -75.43677 25879 ft 490 kts 197°
2026-05-07 00:14 38.85626 -75.44275 25886 ft 491 kts 197°
2026-05-07 00:14 38.82249 -75.44870 25883 ft 487 kts 197°